Time,TemperatureF,DewpointF,PressureIn,WindDirection,WindDirectionDegrees,WindSpeedMPH,WindSpeedGustMPH,Humidity,HourlyPrecipIn,Conditions,Clouds,dailyrainin,SoftwareType,DateUTC
2013-07-01 00:00:00,62.9,51.8,30.05,NE,55,0.0,8.0,67,0.00,,,0.00,Wunderground v.1.15,2013-07-01 05:00:00,
2013-07-01 00:05:00,62.4,51.7,30.05,NE,55,0.0,8.0,68,0.00,,,0.00,Wunderground v.1.15,2013-07-01 05:05:00,
2013-07-01 00:15:00,61.5,51.2,30.05,NE,55,0.0,8.0,69,0.00,,,0.00,Wunderground v.1.15,2013-07-01 05:15:00,
2013-07-01 00:20:00,61.2,51.7,30.05,NE,55,0.0,8.0,71,0.00,,,0.00,Wunderground v.1.15,2013-07-01 05:20:00,
2013-07-01 00:25:00,60.8,51.0,30.05,NE,55,0.0,8.0,70,0.00,,,0.00,Wunderground v.1.15,2013-07-01 05:25:00,
2013-07-01 00:30:00,60.5,51.0,30.05,NE,55,0.0,8.0,71,0.00,,,0.00,Wunderground v.1.15,2013-07-01 05:30:00,
2013-07-01 00:40:00,59.8,50.4,30.05,NE,55,0.0,8.0,71,0.00,,,0.00,Wunderground v.1.15,2013-07-01 05:40:00,
2013-07-01 00:45:00,59.8,51.1,30.05,NE,55,0.0,8.0,73,0.00,,,0.00,Wunderground v.1.15,2013-07-01 05:45:00,
2013-07-01 00:50:00,59.4,50.7,30.06,NE,55,0.0,8.0,73,0.00,,,0.00,Wunderground v.1.15,2013-07-01 05:50:00,
2013-07-01 00:55:00,59.1,50.5,30.06,NE,55,0.0,8.0,73,0.00,,,0.00,Wunderground v.1.15,2013-07-01 05:55:00,
2013-07-01 01:00:00,58.7,49.3,30.06,NE,55,0.0,8.0,71,0.00,,,0.00,Wunderground v.1.15,2013-07-01 06:00:00,
2013-07-01 01:05:00,58.1,48.7,30.06,NE,55,0.0,8.0,71,0.00,,,0.00,Wunderground v.1.15,2013-07-01 06:05:00,
2013-07-01 01:10:00,58.0,49.4,30.06,NE,55,0.0,8.0,73,0.00,,,0.00,Wunderground v.1.15,2013-07-01 06:10:00,
2013-07-01 01:15:00,57.7,49.1,30.06,NE,55,0.0,8.0,73,0.00,,,0.00,Wunderground v.1.15,2013-07-01 06:15:00,
2013-07-01 01:20:00,57.6,49.7,30.06,NE,55,0.0,8.0,75,0.00,,,0.00,Wunderground v.1.15,2013-07-01 06:20:00,
2013-07-01 01:25:00,57.6,50.4,30.06,NE,55,0.0,8.0,77,0.00,,,0.00,Wunderground v.1.15,2013-07-01 06:25:00,
2013-07-01 01:30:00,57.4,49.9,30.06,NE,55,0.0,8.0,76,0.00,,,0.00,Wunderground v.1.15,2013-07-01 06:30:00,
2013-07-01 01:35:00,57.2,49.7,30.06,NE,55,0.0,8.0,76,0.00,,,0.00,Wunderground v.1.15,2013-07-01 06:35:00,
2013-07-01 01:40:00,57.1,50.3,30.06,NE,55,0.0,8.0,78,0.00,,,0.00,Wunderground v.1.15,2013-07-01 06:40:00,
2013-07-01 01:50:00,56.6,50.2,30.06,NE,55,0.0,8.0,79,0.00,,,0.00,Wunderground v.1.15,2013-07-01 06:50:00,
2013-07-01 01:55:00,56.6,50.5,30.06,NE,55,0.0,8.0,80,0.00,,,0.00,Wunderground v.1.15,2013-07-01 06:55:00,
2013-07-01 02:00:00,56.2,49.4,30.06,NE,55,0.0,8.0,78,0.00,,,0.00,Wunderground v.1.15,2013-07-01 07:00:00,
2013-07-01 02:05:00,56.2,50.1,30.06,NE,55,0.0,8.0,80,0.00,,,0.00,Wunderground v.1.15,2013-07-01 07:05:00,
2013-07-01 02:15:00,55.8,50.1,30.07,NE,55,0.0,8.0,81,0.00,,,0.00,Wunderground v.1.15,2013-07-01 07:15:00,
2013-07-01 02:20:00,55.7,50.3,30.06,NE,55,0.0,8.0,82,0.00,,,0.00,Wunderground v.1.15,2013-07-01 07:20:00,
2013-07-01 02:30:00,55.1,49.4,30.07,NE,55,0.0,8.0,81,0.00,,,0.00,Wunderground v.1.15,2013-07-01 07:30:00,
2013-07-01 02:35:00,55.1,50.0,30.07,NE,55,0.0,8.0,83,0.00,,,0.00,Wunderground v.1.15,2013-07-01 07:35:00,
2013-07-01 02:40:00,55.0,49.9,30.07,NE,55,0.0,8.0,83,0.00,,,0.00,Wunderground v.1.15,2013-07-01 07:40:00,
2013-07-01 02:45:00,55.0,50.3,30.07,NE,55,0.0,8.0,84,0.00,,,0.00,Wunderground v.1.15,2013-07-01 07:45:00,
2013-07-01 02:55:00,54.4,49.7,30.07,NE,55,0.0,8.0,84,0.00,,,0.00,Wunderground v.1.15,2013-07-01 07:55:00,
2013-07-01 03:00:00,54.4,49.7,30.07,NE,55,0.0,8.0,84,0.00,,,0.00,Wunderground v.1.15,2013-07-01 08:00:00,
2013-07-01 03:05:00,54.4,49.7,30.07,NE,55,0.0,8.0,84,0.00,,,0.00,Wunderground v.1.15,2013-07-01 08:05:00,
2013-07-01 03:10:00,54.4,49.7,30.07,NE,55,0.0,8.0,84,0.00,,,0.00,Wunderground v.1.15,2013-07-01 08:10:00,
2013-07-01 03:15:00,55.1,49.7,30.07,NNE,18,0.0,8.0,82,0.00,,,0.00,Wunderground v.1.15,2013-07-01 08:15:00,
2013-07-01 03:20:00,56.2,49.4,30.07,NNE,32,0.0,8.0,78,0.00,,,0.00,Wunderground v.1.15,2013-07-01 08:20:00,
2013-07-01 03:25:00,57.2,49.0,30.07,NNE,24,0.0,8.0,74,0.00,,,0.00,Wunderground v.1.15,2013-07-01 08:25:00,
2013-07-01 03:30:00,57.5,48.5,30.07,NNE,32,0.0,8.0,72,0.00,,,0.00,Wunderground v.1.15,2013-07-01 08:30:00,
2013-07-01 03:35:00,57.4,48.8,30.07,NNE,25,0.0,8.0,73,0.00,,,0.00,Wunderground v.1.15,2013-07-01 08:35:00,
2013-07-01 03:40:00,57.1,50.0,30.08,NNE,25,0.0,8.0,77,0.00,,,0.00,Wunderground v.1.15,2013-07-01 08:40:00,
2013-07-01 03:45:00,56.6,49.5,30.08,NNE,25,0.0,8.0,77,0.00,,,0.00,Wunderground v.1.15,2013-07-01 08:45:00,
2013-07-01 03:50:00,56.2,49.1,30.07,NNE,25,0.0,8.0,77,0.00,,,0.00,Wunderground v.1.15,2013-07-01 08:50:00,
2013-07-01 03:55:00,55.9,49.1,30.08,NNE,25,0.0,8.0,78,0.00,,,0.00,Wunderground v.1.15,2013-07-01 08:55:00,
2013-07-01 04:00:00,55.6,49.5,30.07,NNE,25,0.0,8.0,80,0.00,,,0.00,Wunderground v.1.15,2013-07-01 09:00:00,
2013-07-01 04:05:00,55.4,50.0,30.08,NNE,25,0.0,8.0,82,0.00,,,0.00,Wunderground v.1.15,2013-07-01 09:05:00,
2013-07-01 04:10:00,55.0,49.6,30.08,NNE,25,0.0,8.0,82,0.00,,,0.00,Wunderground v.1.15,2013-07-01 09:10:00,
2013-07-01 04:15:00,54.8,49.7,30.08,NNE,25,0.0,8.0,83,0.00,,,0.00,Wunderground v.1.15,2013-07-01 09:15:00,
2013-07-01 04:25:00,54.2,49.1,30.08,NNE,25,0.0,8.0,83,0.00,,,0.00,Wunderground v.1.15,2013-07-01 09:25:00,
2013-07-01 04:30:00,54.0,49.3,30.08,NNE,25,0.0,8.0,84,0.00,,,0.00,Wunderground v.1.15,2013-07-01 09:30:00,
2013-07-01 04:35:00,53.9,49.2,30.08,NNE,25,0.0,8.0,84,0.00,,,0.00,Wunderground v.1.15,2013-07-01 09:35:00,
2013-07-01 04:40:00,53.8,49.4,30.08,NNE,25,0.0,8.0,85,0.00,,,0.00,Wunderground v.1.15,2013-07-01 09:40:00,
2013-07-01 04:45:00,53.8,49.7,30.08,NNE,25,0.0,8.0,86,0.00,,,0.00,Wunderground v.1.15,2013-07-01 09:45:00,
2013-07-01 04:50:00,53.8,49.7,30.09,NNE,25,0.0,8.0,86,0.00,,,0.00,Wunderground v.1.15,2013-07-01 09:50:00,
2013-07-01 04:55:00,53.6,49.2,30.09,NNE,25,0.0,8.0,85,0.00,,,0.00,Wunderground v.1.15,2013-07-01 09:55:00,
2013-07-01 05:00:00,53.4,49.0,30.09,NNE,25,0.0,8.0,85,0.00,,,0.00,Wunderground v.1.15,2013-07-01 10:00:00,
2013-07-01 05:05:00,53.1,49.0,30.10,NNE,25,0.0,8.0,86,0.00,,,0.00,Wunderground v.1.15,2013-07-01 10:05:00,
2013-07-01 05:10:00,53.1,49.0,30.10,NNE,25,0.0,8.0,86,0.00,,,0.00,Wunderground v.1.15,2013-07-01 10:10:00,
2013-07-01 05:15:00,53.2,49.4,30.10,NNE,25,0.0,8.0,87,0.00,,,0.00,Wunderground v.1.15,2013-07-01 10:15:00,
2013-07-01 05:20:00,53.2,49.1,30.10,NNE,25,0.0,8.0,86,0.00,,,0.00,Wunderground v.1.15,2013-07-01 10:20:00,
2013-07-01 05:25:00,53.0,48.9,30.10,NNE,25,0.0,8.0,86,0.00,,,0.00,Wunderground v.1.15,2013-07-01 10:25:00,
2013-07-01 05:30:00,53.0,48.6,30.10,NNE,25,0.0,8.0,85,0.00,,,0.00,Wunderground v.1.15,2013-07-01 10:30:00,
2013-07-01 05:35:00,53.0,48.0,30.10,NE,42,0.0,8.0,83,0.00,,,0.00,Wunderground v.1.15,2013-07-01 10:35:00,
2013-07-01 05:40:00,53.6,48.2,30.11,NE,40,0.0,8.0,82,0.00,,,0.00,Wunderground v.1.15,2013-07-01 10:40:00,
2013-07-01 05:45:00,54.5,48.5,30.11,NNE,23,0.0,8.0,80,0.00,,,0.00,Wunderground v.1.15,2013-07-01 10:45:00,
2013-07-01 05:50:00,55.4,48.3,30.11,NNE,28,0.0,8.0,77,0.00,,,0.00,Wunderground v.1.15,2013-07-01 10:50:00,
2013-07-01 06:00:00,56.8,48.2,30.11,North,5,0.0,8.0,73,0.00,,,0.00,Wunderground v.1.15,2013-07-01 11:00:00,
2013-07-01 06:05:00,57.2,47.9,30.11,NNE,28,1.0,8.0,71,0.00,,,0.00,Wunderground v.1.15,2013-07-01 11:05:00,
2013-07-01 06:10:00,57.6,48.3,30.11,North,360,1.0,8.0,71,0.00,,,0.00,Wunderground v.1.15,2013-07-01 11:10:00,
2013-07-01 06:15:00,57.8,47.7,30.11,NNE,33,1.0,8.0,69,0.00,,,0.00,Wunderground v.1.15,2013-07-01 11:15:00,
2013-07-01 06:20:00,58.1,48.0,30.11,NE,36,1.0,1.0,69,0.00,,,0.00,Wunderground v.1.15,2013-07-01 11:20:00,
2013-07-01 06:25:00,58.3,47.8,30.11,North,5,1.0,2.0,68,0.00,,,0.00,Wunderground v.1.15,2013-07-01 11:25:00,
2013-07-01 06:30:00,58.5,48.0,30.11,NNE,22,1.0,8.0,68,0.00,,,0.00,Wunderground v.1.15,2013-07-01 11:30:00,
2013-07-01 06:35:00,58.7,48.2,30.11,NNE,22,2.0,8.0,68,0.00,,,0.00,Wunderground v.1.15,2013-07-01 11:35:00,
2013-07-01 06:40:00,58.9,48.0,30.11,North,11,2.0,8.0,67,0.00,,,0.00,Wunderground v.1.15,2013-07-01 11:40:00,
2013-07-01 06:45:00,59.3,48.3,30.11,NE,38,2.0,8.0,67,0.00,,,0.00,Wunderground v.1.15,2013-07-01 11:45:00,
2013-07-01 06:50:00,59.5,48.1,30.11,NNE,13,2.0,2.0,66,0.00,,,0.00,Wunderground v.1.15,2013-07-01 11:50:00,
2013-07-01 06:55:00,59.9,48.5,30.12,North,360,1.0,8.0,66,0.00,,,0.00,Wunderground v.1.15,2013-07-01 11:55:00,
2013-07-01 07:00:00,60.1,48.7,30.12,NNE,31,1.0,8.0,66,0.00,,,0.00,Wunderground v.1.15,2013-07-01 12:00:00,
2013-07-01 07:05:00,60.4,49.0,30.11,North,355,1.0,8.0,66,0.00,,,0.00,Wunderground v.1.15,2013-07-01 12:05:00,
2013-07-01 07:10:00,60.7,48.9,30.12,North,360,1.0,8.0,65,0.00,,,0.00,Wunderground v.1.15,2013-07-01 12:10:00,
2013-07-01 07:15:00,60.9,49.1,30.12,North,360,1.0,8.0,65,0.00,,,0.00,Wunderground v.1.15,2013-07-01 12:15:00,
2013-07-01 07:25:00,61.3,49.0,30.12,NNE,19,1.0,8.0,64,0.00,,,0.00,Wunderground v.1.15,2013-07-01 12:25:00,
2013-07-01 07:30:00,61.6,49.3,30.12,NNE,22,1.0,8.0,64,0.00,,,0.00,Wunderground v.1.15,2013-07-01 12:30:00,
2013-07-01 07:35:00,62.0,49.7,30.12,NNE,28,1.0,8.0,64,0.00,,,0.00,Wunderground v.1.15,2013-07-01 12:35:00,
2013-07-01 07:40:00,62.4,49.6,30.12,NNE,19,1.0,8.0,63,0.00,,,0.00,Wunderground v.1.15,2013-07-01 12:40:00,
2013-07-01 07:45:00,62.9,49.7,30.12,NNE,23,1.0,8.0,62,0.00,,,0.00,Wunderground v.1.15,2013-07-01 12:45:00,
2013-07-01 07:50:00,63.4,49.7,30.13,North,360,1.0,1.0,61,0.00,,,0.00,Wunderground v.1.15,2013-07-01 12:50:00,
2013-07-01 07:55:00,63.8,49.6,30.13,NNW,342,1.0,8.0,60,0.00,,,0.00,Wunderground v.1.15,2013-07-01 12:55:00,
2013-07-01 08:00:00,64.3,49.7,30.13,North,5,1.0,8.0,59,0.00,,,0.00,Wunderground v.1.15,2013-07-01 13:00:00,
2013-07-01 08:05:00,64.7,49.1,30.13,North,9,1.0,8.0,57,0.00,,,0.00,Wunderground v.1.15,2013-07-01 13:05:00,
2013-07-01 08:10:00,64.9,49.8,30.13,ENE,58,1.0,1.0,58,0.00,,,0.00,Wunderground v.1.15,2013-07-01 13:10:00,
2013-07-01 08:15:00,65.2,49.1,30.12,NE,55,1.0,3.0,56,0.00,,,0.00,Wunderground v.1.15,2013-07-01 13:15:00,
2013-07-01 08:20:00,65.3,49.7,30.12,NNE,15,2.0,2.0,57,0.00,,,0.00,Wunderground v.1.15,2013-07-01 13:20:00,
2013-07-01 08:25:00,65.8,49.7,30.12,NE,44,2.0,8.0,56,0.00,,,0.00,Wunderground v.1.15,2013-07-01 13:25:00,
2013-07-01 08:30:00,66.2,50.0,30.12,NE,40,1.0,1.0,56,0.00,,,0.00,Wunderground v.1.15,2013-07-01 13:30:00,
2013-07-01 08:35:00,66.7,50.0,30.13,NE,44,1.0,8.0,55,0.00,,,0.00,Wunderground v.1.15,2013-07-01 13:35:00,
2013-07-01 08:40:00,67.2,50.0,30.12,NNE,16,1.0,8.0,54,0.00,,,0.00,Wunderground v.1.15,2013-07-01 13:40:00,
2013-07-01 08:45:00,67.8,50.5,30.12,NE,44,1.0,8.0,54,0.00,,,0.00,Wunderground v.1.15,2013-07-01 13:45:00,
2013-07-01 08:50:00,68.2,50.4,30.12,NNE,31,1.0,8.0,53,0.00,,,0.00,Wunderground v.1.15,2013-07-01 13:50:00,
2013-07-01 08:55:00,68.6,51.3,30.12,NE,55,1.0,8.0,54,0.00,,,0.00,Wunderground v.1.15,2013-07-01 13:55:00,
2013-07-01 09:00:00,69.0,50.6,30.13,NNE,25,1.0,8.0,52,0.00,,,0.00,Wunderground v.1.15,2013-07-01 14:00:00,
2013-07-01 09:05:00,69.1,50.2,30.12,ENE,60,1.0,8.0,51,0.00,,,0.00,Wunderground v.1.15,2013-07-01 14:05:00,
2013-07-01 09:10:00,68.9,50.5,30.13,ENE,63,2.0,2.0,52,0.00,,,0.00,Wunderground v.1.15,2013-07-01 14:10:00,
2013-07-01 09:15:00,69.1,50.7,30.13,North,360,1.0,8.0,52,0.00,,,0.00,Wunderground v.1.15,2013-07-01 14:15:00,
2013-07-01 09:20:00,69.2,50.3,30.13,NE,42,1.0,8.0,51,0.00,,,0.00,Wunderground v.1.15,2013-07-01 14:20:00,
2013-07-01 09:25:00,69.4,50.5,30.13,ENE,75,1.0,8.0,51,0.00,,,0.00,Wunderground v.1.15,2013-07-01 14:25:00,
2013-07-01 09:30:00,69.6,51.7,30.13,ENE,59,1.0,8.0,53,0.00,,,0.00,Wunderground v.1.15,2013-07-01 14:30:00,
2013-07-01 09:35:00,69.4,51.5,30.12,ENE,61,1.0,8.0,53,0.00,,,0.00,Wunderground v.1.15,2013-07-01 14:35:00,
2013-07-01 09:40:00,69.4,52.0,30.12,ESE,105,1.0,1.0,54,0.00,,,0.00,Wunderground v.1.15,2013-07-01 14:40:00,
2013-07-01 09:45:00,69.4,52.5,30.13,NE,48,1.0,8.0,55,0.00,,,0.00,Wunderground v.1.15,2013-07-01 14:45:00,
2013-07-01 09:50:00,69.2,51.8,30.12,NE,40,1.0,8.0,54,0.00,,,0.00,Wunderground v.1.15,2013-07-01 14:50:00,
2013-07-01 09:55:00,68.8,52.9,30.13,East,88,2.0,8.0,57,0.00,,,0.00,Wunderground v.1.15,2013-07-01 14:55:00,
2013-07-01 10:00:00,69.2,54.3,30.13,NE,49,1.0,8.0,59,0.00,,,0.00,Wunderground v.1.15,2013-07-01 15:00:00,
2013-07-01 10:10:00,68.7,52.4,30.13,NE,40,2.0,2.0,56,0.00,,,0.00,Wunderground v.1.15,2013-07-01 15:10:00,
2013-07-01 10:15:00,68.6,53.2,30.12,NE,37,2.0,8.0,58,0.00,,,0.00,Wunderground v.1.15,2013-07-01 15:15:00,
2013-07-01 10:20:00,68.8,53.9,30.12,NE,40,1.0,8.0,59,0.00,,,0.00,Wunderground v.1.15,2013-07-01 15:20:00,
2013-07-01 10:25:00,68.8,53.9,30.13,NE,39,1.0,8.0,59,0.00,,,0.00,Wunderground v.1.15,2013-07-01 15:25:00,
2013-07-01 10:35:00,69.0,54.5,30.13,NNE,12,1.0,8.0,60,0.00,,,0.00,Wunderground v.1.15,2013-07-01 15:35:00,
2013-07-01 10:40:00,68.9,54.0,30.13,NE,51,2.0,2.0,59,0.00,,,0.00,Wunderground v.1.15,2013-07-01 15:40:00,
2013-07-01 10:50:00,69.3,54.8,30.13,NNE,29,1.0,1.0,60,0.00,,,0.00,Wunderground v.1.15,2013-07-01 15:50:00,
2013-07-01 10:55:00,69.5,56.3,30.13,NE,46,1.0,2.0,63,0.00,,,0.00,Wunderground v.1.15,2013-07-01 15:55:00,
2013-07-01 11:00:00,69.5,55.9,30.13,ENE,65,1.0,1.0,62,0.00,,,0.00,Wunderground v.1.15,2013-07-01 16:00:00,
2013-07-01 11:05:00,69.4,55.4,30.12,ENE,67,1.0,8.0,61,0.00,,,0.00,Wunderground v.1.15,2013-07-01 16:05:00,
2013-07-01 11:15:00,69.8,57.1,30.12,East,90,1.0,8.0,64,0.00,,,0.00,Wunderground v.1.15,2013-07-01 16:15:00,
2013-07-01 11:25:00,70.8,57.1,30.12,ENE,57,1.0,8.0,62,0.00,,,0.00,Wunderground v.1.15,2013-07-01 16:25:00,
2013-07-01 11:30:00,70.8,56.7,30.13,NNE,13,1.0,8.0,61,0.00,,,0.00,Wunderground v.1.15,2013-07-01 16:30:00,
2013-07-01 11:35:00,70.6,57.4,30.13,NE,38,2.0,8.0,63,0.00,,,0.00,Wunderground v.1.15,2013-07-01 16:35:00,
2013-07-01 11:40:00,70.0,55.9,30.13,NE,50,2.0,8.0,61,0.00,,,0.00,Wunderground v.1.15,2013-07-01 16:40:00,
2013-07-01 11:45:00,69.8,57.1,30.13,ENE,69,3.0,8.0,64,0.00,,,0.00,Wunderground v.1.15,2013-07-01 16:45:00,
2013-07-01 11:50:00,70.2,57.4,30.13,NE,44,2.0,2.0,64,0.00,,,0.00,Wunderground v.1.15,2013-07-01 16:50:00,
2013-07-01 11:55:00,70.2,57.0,30.13,ENE,73,1.0,8.0,63,0.00,,,0.00,Wunderground v.1.15,2013-07-01 16:55:00,
2013-07-01 12:00:00,69.8,57.1,30.13,NNE,14,2.0,8.0,64,0.00,,,0.00,Wunderground v.1.15,2013-07-01 17:00:00,
2013-07-01 12:05:00,69.8,57.9,30.13,NE,54,2.0,8.0,66,0.00,,,0.00,Wunderground v.1.15,2013-07-01 17:05:00,
2013-07-01 12:10:00,69.9,56.3,30.13,NNE,24,2.0,8.0,62,0.00,,,0.00,Wunderground v.1.15,2013-07-01 17:10:00,
2013-07-01 12:15:00,70.2,57.0,30.13,East,96,2.0,8.0,63,0.00,,,0.00,Wunderground v.1.15,2013-07-01 17:15:00,
2013-07-01 12:20:00,70.1,57.4,30.13,North,10,1.0,8.0,64,0.00,,,0.00,Wunderground v.1.15,2013-07-01 17:20:00,
2013-07-01 12:25:00,69.6,56.0,30.13,NE,51,3.0,8.0,62,0.00,,,0.00,Wunderground v.1.15,2013-07-01 17:25:00,
2013-07-01 12:30:00,69.9,57.2,30.13,NE,43,3.0,8.0,64,0.00,,,0.00,Wunderground v.1.15,2013-07-01 17:30:00,
2013-07-01 12:35:00,70.2,57.4,30.13,NE,43,2.0,8.0,64,0.00,,,0.00,Wunderground v.1.15,2013-07-01 17:35:00,
2013-07-01 12:40:00,69.9,56.7,30.13,NE,48,3.0,11.0,63,0.00,,,0.00,Wunderground v.1.15,2013-07-01 17:40:00,
2013-07-01 12:45:00,69.7,57.4,30.13,ENE,78,4.0,11.0,65,0.00,,,0.00,Wunderground v.1.15,2013-07-01 17:45:00,
2013-07-01 12:50:00,70.2,58.3,30.13,NE,44,3.0,8.0,66,0.00,,,0.00,Wunderground v.1.15,2013-07-01 17:50:00,
2013-07-01 12:55:00,69.5,57.2,30.13,East,79,4.0,8.0,65,0.00,,,0.00,Wunderground v.1.15,2013-07-01 17:55:00,
2013-07-01 13:05:00,69.0,57.6,30.13,NE,47,5.0,8.0,67,0.00,,,0.00,Wunderground v.1.15,2013-07-01 18:05:00,
2013-07-01 13:10:00,69.2,58.2,30.13,ESE,107,5.0,8.0,68,0.00,,,0.00,Wunderground v.1.15,2013-07-01 18:10:00,
2013-07-01 13:15:00,69.6,58.6,30.13,East,84,4.0,8.0,68,0.00,,,0.00,Wunderground v.1.15,2013-07-01 18:15:00,
2013-07-01 13:20:00,69.1,58.1,30.13,NE,46,5.0,8.0,68,0.00,,,0.00,Wunderground v.1.15,2013-07-01 18:20:00,
2013-07-01 13:25:00,69.2,58.6,30.13,NE,51,5.0,8.0,69,0.00,,,0.00,Wunderground v.1.15,2013-07-01 18:25:00,
2013-07-01 13:30:00,69.3,58.3,30.13,NE,55,4.0,4.0,68,0.00,,,0.00,Wunderground v.1.15,2013-07-01 18:30:00,
2013-07-01 13:35:00,69.8,58.3,30.13,ESE,111,3.0,8.0,67,0.00,,,0.00,Wunderground v.1.15,2013-07-01 18:35:00,
2013-07-01 13:40:00,69.4,57.1,30.13,NE,54,4.0,8.0,65,0.00,,,0.00,Wunderground v.1.15,2013-07-01 18:40:00,
2013-07-01 13:45:00,69.5,58.1,30.13,NE,44,5.0,13.0,67,0.00,,,0.00,Wunderground v.1.15,2013-07-01 18:45:00,
2013-07-01 13:50:00,69.4,57.5,30.13,NE,54,5.0,10.0,66,0.00,,,0.00,Wunderground v.1.15,2013-07-01 18:50:00,
2013-07-01 13:55:00,69.3,57.5,30.13,ENE,69,6.0,10.0,66,0.00,,,0.00,Wunderground v.1.15,2013-07-01 18:55:00,
2013-07-01 14:00:00,69.6,57.7,30.13,ENE,63,5.0,5.0,66,0.00,,,0.00,Wunderground v.1.15,2013-07-01 19:00:00,
2013-07-01 14:05:00,70.2,58.3,30.13,ENE,61,4.0,8.0,66,0.00,,,0.00,Wunderground v.1.15,2013-07-01 19:05:00,
2013-07-01 14:10:00,70.3,58.0,30.13,NE,36,3.0,8.0,65,0.00,,,0.00,Wunderground v.1.15,2013-07-01 19:10:00,
2013-07-01 14:15:00,70.6,57.8,30.13,ENE,71,4.0,8.0,64,0.00,,,0.00,Wunderground v.1.15,2013-07-01 19:15:00,
2013-07-01 14:20:00,70.6,56.5,30.13,NE,46,4.0,8.0,61,0.00,,,0.00,Wunderground v.1.15,2013-07-01 19:20:00,
2013-07-01 14:25:00,70.4,57.2,30.13,East,87,5.0,8.0,63,0.00,,,0.00,Wunderground v.1.15,2013-07-01 19:25:00,
2013-07-01 14:30:00,70.9,58.1,30.13,ENE,65,4.0,8.0,64,0.00,,,0.00,Wunderground v.1.15,2013-07-01 19:30:00,
2013-07-01 14:35:00,71.2,57.1,30.13,ENE,61,2.0,8.0,61,0.00,,,0.00,Wunderground v.1.15,2013-07-01 19:35:00,
2013-07-01 14:40:00,71.2,56.1,30.13,NE,52,3.0,8.0,59,0.00,,,0.00,Wunderground v.1.15,2013-07-01 19:40:00,
2013-07-01 14:45:00,71.0,55.9,30.12,ENE,61,4.0,8.0,59,0.00,,,0.00,Wunderground v.1.15,2013-07-01 19:45:00,
2013-07-01 14:50:00,71.5,56.9,30.13,ESE,105,4.0,4.0,60,0.00,,,0.00,Wunderground v.1.15,2013-07-01 19:50:00,
2013-07-01 14:55:00,71.3,55.8,30.12,ENE,61,4.0,6.0,58,0.00,,,0.00,Wunderground v.1.15,2013-07-01 19:55:00,
2013-07-01 15:00:00,71.2,55.7,30.12,NE,53,5.0,8.0,58,0.00,,,0.00,Wunderground v.1.15,2013-07-01 20:00:00,
2013-07-01 15:05:00,71.6,57.4,30.12,NE,36,4.0,8.0,61,0.00,,,0.00,Wunderground v.1.15,2013-07-01 20:05:00,
2013-07-01 15:10:00,71.6,55.6,30.12,ENE,59,4.0,4.0,57,0.00,,,0.00,Wunderground v.1.15,2013-07-01 20:10:00,
2013-07-01 15:20:00,72.1,56.5,30.12,NE,55,4.0,4.0,58,0.00,,,0.00,Wunderground v.1.15,2013-07-01 20:20:00,
2013-07-01 15:25:00,71.7,57.5,30.12,East,85,5.0,5.0,61,0.00,,,0.00,Wunderground v.1.15,2013-07-01 20:25:00,
2013-07-01 15:30:00,71.9,57.7,30.12,East,90,3.0,3.0,61,0.00,,,0.00,Wunderground v.1.15,2013-07-01 20:30:00,
2013-07-01 15:35:00,71.9,58.2,30.12,ESE,116,3.0,8.0,62,0.00,,,0.00,Wunderground v.1.15,2013-07-01 20:35:00,
2013-07-01 15:40:00,71.9,56.8,30.12,East,81,3.0,3.0,59,0.00,,,0.00,Wunderground v.1.15,2013-07-01 20:40:00,
2013-07-01 15:45:00,72.2,57.1,30.12,ENE,65,3.0,8.0,59,0.00,,,0.00,Wunderground v.1.15,2013-07-01 20:45:00,
2013-07-01 15:50:00,72.6,57.9,30.12,NE,55,2.0,2.0,60,0.00,,,0.00,Wunderground v.1.15,2013-07-01 20:50:00,
2013-07-01 15:55:00,72.5,58.3,30.12,NNE,24,2.0,8.0,61,0.00,,,0.00,Wunderground v.1.15,2013-07-01 20:55:00,
2013-07-01 16:00:00,72.7,58.5,30.12,NE,48,2.0,2.0,61,0.00,,,0.00,Wunderground v.1.15,2013-07-01 21:00:00,
2013-07-01 16:05:00,73.1,58.4,30.12,ESE,107,2.0,8.0,60,0.00,,,0.00,Wunderground v.1.15,2013-07-01 21:05:00,
2013-07-01 16:10:00,73.1,57.0,30.12,East,86,2.0,2.0,57,0.00,,,0.00,Wunderground v.1.15,2013-07-01 21:10:00,
2013-07-01 16:15:00,73.0,57.3,30.12,East,88,2.0,8.0,58,0.00,,,0.00,Wunderground v.1.15,2013-07-01 21:15:00,
2013-07-01 16:20:00,73.1,57.9,30.12,NE,55,2.0,2.0,59,0.00,,,0.00,Wunderground v.1.15,2013-07-01 21:20:00,
2013-07-01 16:25:00,73.3,58.1,30.12,East,94,2.0,6.0,59,0.00,,,0.00,Wunderground v.1.15,2013-07-01 21:25:00,
2013-07-01 16:30:00,73.0,58.3,30.12,East,81,3.0,3.0,60,0.00,,,0.00,Wunderground v.1.15,2013-07-01 21:30:00,
2013-07-01 16:35:00,73.2,58.5,30.12,NE,46,3.0,8.0,60,0.00,,,0.00,Wunderground v.1.15,2013-07-01 21:35:00,
2013-07-01 16:40:00,73.3,58.6,30.12,East,86,2.0,10.0,60,0.00,,,0.00,Wunderground v.1.15,2013-07-01 21:40:00,
2013-07-01 16:45:00,73.4,56.2,30.11,East,87,2.0,10.0,55,0.00,,,0.00,Wunderground v.1.15,2013-07-01 21:45:00,
2013-07-01 16:50:00,73.3,57.1,30.12,East,82,3.0,3.0,57,0.00,,,0.00,Wunderground v.1.15,2013-07-01 21:50:00,
2013-07-01 16:55:00,73.1,55.5,30.12,ESE,107,4.0,7.0,54,0.00,,,0.00,Wunderground v.1.15,2013-07-01 21:55:00,
2013-07-01 17:00:00,73.1,56.5,30.12,NNE,13,4.0,4.0,56,0.00,,,0.00,Wunderground v.1.15,2013-07-01 22:00:00,
2013-07-01 17:05:00,73.2,56.1,30.12,ENE,77,3.0,8.0,55,0.00,,,0.00,Wunderground v.1.15,2013-07-01 22:05:00,
2013-07-01 17:10:00,73.4,56.2,30.12,East,90,2.0,2.0,55,0.00,,,0.00,Wunderground v.1.15,2013-07-01 22:10:00,
2013-07-01 17:15:00,73.5,56.3,30.12,East,90,2.0,6.0,55,0.00,,,0.00,Wunderground v.1.15,2013-07-01 22:15:00,
2013-07-01 17:20:00,73.3,55.6,30.12,East,79,2.0,2.0,54,0.00,,,0.00,Wunderground v.1.15,2013-07-01 22:20:00,
2013-07-01 17:25:00,73.3,56.7,30.12,ENE,68,2.0,8.0,56,0.00,,,0.00,Wunderground v.1.15,2013-07-01 22:25:00,
2013-07-01 17:30:00,73.2,56.1,30.12,NE,56,2.0,2.0,55,0.00,,,0.00,Wunderground v.1.15,2013-07-01 22:30:00,
2013-07-01 17:40:00,73.0,55.9,30.11,ENE,57,2.0,2.0,55,0.00,,,0.00,Wunderground v.1.15,2013-07-01 22:40:00,
2013-07-01 17:45:00,72.8,55.7,30.11,ESE,106,2.0,8.0,55,0.00,,,0.00,Wunderground v.1.15,2013-07-01 22:45:00,
2013-07-01 17:50:00,72.8,56.7,30.11,East,84,2.0,2.0,57,0.00,,,0.00,Wunderground v.1.15,2013-07-01 22:50:00,
2013-07-01 17:55:00,72.7,56.1,30.11,East,86,1.0,8.0,56,0.00,,,0.00,Wunderground v.1.15,2013-07-01 22:55:00,
2013-07-01 18:00:00,72.6,56.5,30.12,ENE,61,1.0,1.0,57,0.00,,,0.00,Wunderground v.1.15,2013-07-01 23:00:00,
2013-07-01 18:05:00,72.6,56.5,30.12,ENE,57,1.0,8.0,57,0.00,,,0.00,Wunderground v.1.15,2013-07-01 23:05:00,
2013-07-01 18:10:00,72.6,56.5,30.12,NE,47,1.0,8.0,57,0.00,,,0.00,Wunderground v.1.15,2013-07-01 23:10:00,
2013-07-01 18:15:00,72.5,56.4,30.11,East,88,1.0,8.0,57,0.00,,,0.00,Wunderground v.1.15,2013-07-01 23:15:00,
2013-07-01 18:20:00,72.7,56.1,30.12,NE,51,1.0,8.0,56,0.00,,,0.00,Wunderground v.1.15,2013-07-01 23:20:00,
2013-07-01 18:25:00,72.8,56.2,30.12,NE,46,1.0,8.0,56,0.00,,,0.00,Wunderground v.1.15,2013-07-01 23:25:00,
2013-07-01 18:30:00,72.7,55.6,30.12,East,97,1.0,8.0,55,0.00,,,0.00,Wunderground v.1.15,2013-07-01 23:30:00,
2013-07-01 18:35:00,72.7,56.6,30.12,East,93,1.0,8.0,57,0.00,,,0.00,Wunderground v.1.15,2013-07-01 23:35:00,
2013-07-01 18:40:00,72.7,56.6,30.12,East,96,1.0,8.0,57,0.00,,,0.00,Wunderground v.1.15,2013-07-01 23:40:00,
2013-07-01 18:45:00,72.6,57.4,30.12,East,101,1.0,8.0,59,0.00,,,0.00,Wunderground v.1.15,2013-07-01 23:45:00,
2013-07-01 18:50:00,72.3,57.2,30.12,East,99,1.0,1.0,59,0.00,,,0.00,Wunderground v.1.15,2013-07-01 23:50:00,
2013-07-01 18:55:00,72.2,58.0,30.12,East,79,1.0,8.0,61,0.00,,,0.00,Wunderground v.1.15,2013-07-01 23:55:00,
2013-07-01 19:00:00,71.9,58.2,30.12,East,86,1.0,8.0,62,0.00,,,0.00,Wunderground v.1.15,2013-07-02 00:00:00,
2013-07-01 19:10:00,71.1,57.9,30.12,East,88,1.0,8.0,63,0.00,,,0.00,Wunderground v.1.15,2013-07-02 00:10:00,
2013-07-01 19:15:00,70.8,58.0,30.12,ENE,76,1.0,8.0,64,0.00,,,0.00,Wunderground v.1.15,2013-07-02 00:15:00,
2013-07-01 19:20:00,70.7,57.9,30.12,ENE,72,1.0,1.0,64,0.00,,,0.00,Wunderground v.1.15,2013-07-02 00:20:00,
2013-07-01 19:25:00,70.5,58.2,30.11,ENE,67,1.0,8.0,65,0.00,,,0.00,Wunderground v.1.15,2013-07-02 00:25:00,
2013-07-01 19:30:00,70.4,58.5,30.11,ENE,65,1.0,1.0,66,0.00,,,0.00,Wunderground v.1.15,2013-07-02 00:30:00,
2013-07-01 19:35:00,70.1,58.2,30.11,ENE,74,1.0,8.0,66,0.00,,,0.00,Wunderground v.1.15,2013-07-02 00:35:00,
2013-07-01 19:40:00,69.9,58.4,30.11,NE,55,1.0,1.0,67,0.00,,,0.00,Wunderground v.1.15,2013-07-02 00:40:00,
2013-07-01 19:45:00,69.8,59.2,30.11,ENE,74,1.0,8.0,69,0.00,,,0.00,Wunderground v.1.15,2013-07-02 00:45:00,
2013-07-01 19:50:00,69.4,59.2,30.12,ENE,57,1.0,1.0,70,0.00,,,0.00,Wunderground v.1.15,2013-07-02 00:50:00,
2013-07-01 19:55:00,68.9,58.7,30.12,NE,49,1.0,5.0,70,0.00,,,0.00,Wunderground v.1.15,2013-07-02 00:55:00,
2013-07-01 20:00:00,68.5,58.7,30.12,NE,48,1.0,8.0,71,0.00,,,0.00,Wunderground v.1.15,2013-07-02 01:00:00,
2013-07-01 20:05:00,68.2,58.4,30.12,NNE,27,2.0,8.0,71,0.00,,,0.00,Wunderground v.1.15,2013-07-02 01:05:00,
2013-07-01 20:10:00,68.0,58.2,30.12,ENE,57,1.0,8.0,71,0.00,,,0.00,Wunderground v.1.15,2013-07-02 01:10:00,
2013-07-01 20:15:00,67.8,58.4,30.12,NE,35,1.0,8.0,72,0.00,,,0.00,Wunderground v.1.15,2013-07-02 01:15:00,
2013-07-01 20:20:00,67.6,57.9,30.12,NE,51,1.0,8.0,71,0.00,,,0.00,Wunderground v.1.15,2013-07-02 01:20:00,
2013-07-01 20:25:00,67.4,57.7,30.12,NE,43,1.0,8.0,71,0.00,,,0.00,Wunderground v.1.15,2013-07-02 01:25:00,
2013-07-01 20:35:00,67.0,56.9,30.12,ENE,59,1.0,8.0,70,0.00,,,0.00,Wunderground v.1.15,2013-07-02 01:35:00,
2013-07-01 20:40:00,66.9,57.2,30.13,ENE,63,1.0,8.0,71,0.00,,,0.00,Wunderground v.1.15,2013-07-02 01:40:00,
2013-07-01 20:45:00,66.8,57.5,30.13,NE,49,1.0,8.0,72,0.00,,,0.00,Wunderground v.1.15,2013-07-02 01:45:00,
2013-07-01 20:50:00,66.8,57.9,30.13,NE,53,2.0,8.0,73,0.00,,,0.00,Wunderground v.1.15,2013-07-02 01:50:00,
2013-07-01 20:55:00,66.6,57.7,30.13,NE,42,2.0,8.0,73,0.00,,,0.00,Wunderground v.1.15,2013-07-02 01:55:00,
2013-07-01 21:00:00,66.4,56.7,30.13,ENE,77,1.0,8.0,71,0.00,,,0.00,Wunderground v.1.15,2013-07-02 02:00:00,
2013-07-01 21:05:00,66.3,56.6,30.13,ENE,63,2.0,8.0,71,0.00,,,0.00,Wunderground v.1.15,2013-07-02 02:05:00,
2013-07-01 21:10:00,66.2,56.9,30.13,North,360,2.0,8.0,72,0.00,,,0.00,Wunderground v.1.15,2013-07-02 02:10:00,
2013-07-01 21:15:00,66.2,56.9,30.13,ENE,61,2.0,8.0,72,0.00,,,0.00,Wunderground v.1.15,2013-07-02 02:15:00,
2013-07-01 21:20:00,66.2,56.9,30.13,ENE,66,1.0,8.0,72,0.00,,,0.00,Wunderground v.1.15,2013-07-02 02:20:00,
2013-07-01 21:25:00,66.2,56.1,30.13,ENE,63,2.0,8.0,70,0.00,,,0.00,Wunderground v.1.15,2013-07-02 02:25:00,
2013-07-01 21:30:00,66.3,55.4,30.13,ENE,73,3.0,8.0,68,0.00,,,0.00,Wunderground v.1.15,2013-07-02 02:30:00,
2013-07-01 21:35:00,66.3,55.0,30.14,NE,39,3.0,8.0,67,0.00,,,0.00,Wunderground v.1.15,2013-07-02 02:35:00,
2013-07-01 21:40:00,66.3,55.0,30.14,NE,53,3.0,3.0,67,0.00,,,0.00,Wunderground v.1.15,2013-07-02 02:40:00,
2013-07-01 21:45:00,66.2,54.5,30.14,East,96,2.0,5.0,66,0.00,,,0.00,Wunderground v.1.15,2013-07-02 02:45:00,
2013-07-01 21:50:00,66.1,53.6,30.14,NE,54,2.0,8.0,64,0.00,,,0.00,Wunderground v.1.15,2013-07-02 02:50:00,
2013-07-01 21:55:00,66.2,53.7,30.14,East,82,2.0,8.0,64,0.00,,,0.00,Wunderground v.1.15,2013-07-02 02:55:00,
2013-07-01 22:05:00,66.0,54.7,30.14,NE,47,1.0,3.0,67,0.00,,,0.00,Wunderground v.1.15,2013-07-02 03:05:00,
2013-07-01 22:10:00,66.0,54.3,30.14,ENE,58,2.0,2.0,66,0.00,,,0.00,Wunderground v.1.15,2013-07-02 03:10:00,
2013-07-01 22:15:00,65.9,52.5,30.14,NE,36,2.0,8.0,62,0.00,,,0.00,Wunderground v.1.15,2013-07-02 03:15:00,
2013-07-01 22:20:00,65.8,52.4,30.14,ENE,78,1.0,8.0,62,0.00,,,0.00,Wunderground v.1.15,2013-07-02 03:20:00,
2013-07-01 22:25:00,65.5,51.2,30.14,NNE,15,2.0,8.0,60,0.00,,,0.00,Wunderground v.1.15,2013-07-02 03:25:00,
2013-07-01 22:30:00,65.1,50.0,30.14,ENE,59,2.0,2.0,58,0.00,,,0.00,Wunderground v.1.15,2013-07-02 03:30:00,
2013-07-01 22:35:00,64.7,48.2,30.14,NE,53,2.0,8.0,55,0.00,,,0.00,Wunderground v.1.15,2013-07-02 03:35:00,
2013-07-01 22:40:00,64.4,47.4,30.14,NE,42,2.0,2.0,54,0.00,,,0.00,Wunderground v.1.15,2013-07-02 03:40:00,
2013-07-01 22:45:00,64.1,46.6,30.14,NE,38,2.0,8.0,53,0.00,,,0.00,Wunderground v.1.15,2013-07-02 03:45:00,
2013-07-01 22:50:00,63.9,46.4,30.14,NE,34,2.0,8.0,53,0.00,,,0.00,Wunderground v.1.15,2013-07-02 03:50:00,
2013-07-01 22:55:00,63.7,46.2,30.14,NE,34,1.0,8.0,53,0.00,,,0.00,Wunderground v.1.15,2013-07-02 03:55:00,
2013-07-01 23:00:00,63.5,46.1,30.14,ENE,78,1.0,8.0,53,0.00,,,0.00,Wunderground v.1.15,2013-07-02 04:00:00,
2013-07-01 23:05:00,63.3,45.4,30.14,NNE,18,1.0,8.0,52,0.00,,,0.00,Wunderground v.1.15,2013-07-02 04:05:00,
2013-07-01 23:10:00,63.2,45.3,30.14,NE,44,1.0,8.0,52,0.00,,,0.00,Wunderground v.1.15,2013-07-02 04:10:00,
2013-07-01 23:15:00,63.1,45.2,30.14,NE,51,1.0,8.0,52,0.00,,,0.00,Wunderground v.1.15,2013-07-02 04:15:00,
2013-07-01 23:20:00,63.0,45.1,30.14,ENE,64,1.0,1.0,52,0.00,,,0.00,Wunderground v.1.15,2013-07-02 04:20:00,
2013-07-01 23:25:00,62.9,45.0,30.14,NE,34,2.0,2.0,52,0.00,,,0.00,Wunderground v.1.15,2013-07-02 04:25:00,
2013-07-01 23:35:00,62.4,44.5,30.14,NE,42,1.0,2.0,52,0.00,,,0.00,Wunderground v.1.15,2013-07-02 04:35:00,
2013-07-01 23:40:00,62.1,44.8,30.14,NE,53,1.0,8.0,53,0.00,,,0.00,Wunderground v.1.15,2013-07-02 04:40:00,
2013-07-01 23:45:00,61.9,45.1,30.14,NNE,24,1.0,8.0,54,0.00,,,0.00,Wunderground v.1.15,2013-07-02 04:45:00,
2013-07-01 23:50:00,61.6,45.3,30.14,NE,35,1.0,8.0,55,0.00,,,0.00,Wunderground v.1.15,2013-07-02 04:50:00,
2013-07-01 23:55:00,61.3,45.0,30.14,NNE,22,1.0,8.0,55,0.00,,,0.00,Wunderground v.1.15,2013-07-02 04:55:00,